When you browse on this site, cookies collect data to enhance your experience and personalize the content and advertising you see.
Visit our Privacy Policy to learn more. By continuing to use the site, you agree to this use of cookies and data.
  • în România
  • Lista ţărilor
  • Pe 7 zile
  • Temperatura apei
  • Meteo pe hartă
  • Widget-uri
  • user-avatar
    Intrare

    Meteo pe oră la Tafilah

    Astăzi, 24 August, Sâmbătă

    Timp Temperatura Precipitaţii Vânt Presiune Umiditate
    00:00 +24°C° 0 mm 2 m/s 695 mmHg 69%
    01:00 +24°C° 0 mm 2 m/s 695 mmHg 70%
    02:00 +23°C° 0 mm 1 m/s 695 mmHg 77%
    03:00 +23°C° 0 mm 2 m/s 695 mmHg 78%
    04:00 +23°C° 0 mm 2 m/s 695 mmHg 79%
    05:00 +21°C° 0 mm 2 m/s 695 mmHg 79%
    06:00 +24°C° 0 mm 2 m/s 696 mmHg 71%
    07:00 +26°C° 0 mm 2 m/s 696 mmHg 62%
    08:00 +28°C° 0 mm 2 m/s 697 mmHg 53%
    09:00 +30°C° 0 mm 2 m/s 697 mmHg 47%
    10:00 +32°C° 0 mm 2 m/s 697 mmHg 40%
    11:00 +35°C° 0 mm 2 m/s 697 mmHg 33%
    12:00 +36°C° 0 mm 3 m/s 697 mmHg 30%
    13:00 +37°C° 0 mm 3 m/s 696 mmHg 27%
    14:00 +38°C° 0 mm 4 m/s 696 mmHg 24%
    15:00 +37°C° 0 mm 4 m/s 696 mmHg 24%
    16:00 +37°C° 0 mm 4 m/s 696 mmHg 24%
    17:00 +36°C° 0 mm 5 m/s 696 mmHg 25%
    18:00 +34°C° 0 mm 4 m/s 696 mmHg 35%
    19:00 +30°C° 0 mm 3 m/s 696 mmHg 45%
    20:00 +28°C° 0 mm 2 m/s 696 mmHg 55%
    21:00 +27°C° 0 mm 2 m/s 696 mmHg 57%
    22:00 +26°C° 0 mm 1 m/s 696 mmHg 60%
    23:00 +25°C° 0 mm 1 m/s 696 mmHg 62%

    Mâine, 25 August, Duminică

    Timp Temperatura Precipitaţii Vânt Presiune Umiditate
    00:00 +25°C° 0 mm 1 m/s 696 mmHg 62%
    01:00 +24°C° 0 mm 1 m/s 695 mmHg 62%
    02:00 +24°C° 0 mm 1 m/s 695 mmHg 62%
    03:00 +24°C° 0 mm 1 m/s 695 mmHg 63%
    04:00 +23°C° 0 mm 1 m/s 695 mmHg 63%
    05:00 +23°C° 0 mm 1 m/s 696 mmHg 64%
    06:00 +25°C° 0 mm 1 m/s 696 mmHg 56%
    07:00 +27°C° 0 mm 1 m/s 697 mmHg 48%
    08:00 +29°C° 0 mm 1 m/s 697 mmHg 40%
    09:00 +31°C° 0 mm 1 m/s 697 mmHg 36%
    10:00 +34°C° 0 mm 2 m/s 697 mmHg 32%
    11:00 +35°C° 0 mm 2 m/s 698 mmHg 27%
    12:00 +36°C° 0 mm 3 m/s 697 mmHg 25%
    13:00 +37°C° 0 mm 4 m/s 697 mmHg 23%
    14:00 +38°C° 0 mm 4 m/s 697 mmHg 21%
    15:00 +37°C° 0 mm 5 m/s 696 mmHg 23%
    16:00 +38°C° 0 mm 6 m/s 696 mmHg 24%
    17:00 +36°C° 0 mm 6 m/s 696 mmHg 25%
    18:00 +33°C° 0 mm 5 m/s 696 mmHg 32%
    19:00 +30°C° 0 mm 4 m/s 696 mmHg 40%
    20:00 +27°C° 0 mm 2 m/s 697 mmHg 47%
    21:00 +27°C° 0 mm 2 m/s 697 mmHg 48%
    22:00 +26°C° 0 mm 2 m/s 697 mmHg 49%
    23:00 +25°C° 0 mm 2 m/s 697 mmHg 50%

    Poimâine, 26 August, Luni

    Timp Temperatura Precipitaţii Vânt Presiune Umiditate
    00:00 +25°C° 0 mm 1 m/s 696 mmHg 50%
    01:00 +24°C° 0 mm 1 m/s 696 mmHg 50%
    02:00 +23°C° 0 mm 1 m/s 696 mmHg 50%
    03:00 +23°C° 0 mm 1 m/s 696 mmHg 50%
    04:00 +23°C° 0 mm 1 m/s 696 mmHg 51%
    05:00 +22°C° 0 mm 1 m/s 696 mmHg 52%
    06:00 +25°C° 0 mm 1 m/s 697 mmHg 45%
    07:00 +27°C° 0 mm 1 m/s 697 mmHg 38%
    08:00 +30°C° 0 mm 1 m/s 698 mmHg 31%
    09:00 +31°C° 0 mm 2 m/s 698 mmHg 29%
    10:00 +34°C° 0 mm 2 m/s 698 mmHg 26%
    11:00 +36°C° 0 mm 3 m/s 698 mmHg 23%
    12:00 +36°C° 0 mm 3 m/s 697 mmHg 22%
    13:00 +37°C° 0 mm 3 m/s 697 mmHg 21%
    14:00 +38°C° 0 mm 4 m/s 697 mmHg 19%
    15:00 +37°C° 0 mm 4 m/s 696 mmHg 21%
    16:00 +36°C° 0 mm 5 m/s 696 mmHg 22%
    17:00 +36°C° 0 mm 5 m/s 696 mmHg 24%
    18:00 +33°C° 0 mm 5 m/s 696 mmHg 32%
    19:00 +30°C° 0 mm 4 m/s 696 mmHg 40%
    20:00 +27°C° 0 mm 3 m/s 696 mmHg 48%
    21:00 +26°C° 0 mm 2 m/s 697 mmHg 51%
    22:00 +25°C° 0 mm 2 m/s 697 mmHg 54%
    23:00 +25°C° 0 mm 1 m/s 697 mmHg 57%

    27 August, Marţi

    Timp Temperatura Precipitaţii Vânt Presiune Umiditate
    00:00 +24°C° 0 mm 1 m/s 696 mmHg 59%
    01:00 +24°C° 0 mm 2 m/s 696 mmHg 60%
    02:00 +23°C° 0 mm 2 m/s 696 mmHg 61%
    03:00 +23°C° 0 mm 2 m/s 696 mmHg 60%
    04:00 +22°C° 0 mm 1 m/s 696 mmHg 59%
    05:00 +22°C° 0 mm 1 m/s 696 mmHg 58%
    06:00 +24°C° 0 mm 1 m/s 696 mmHg 50%
    07:00 +26°C° 0 mm 1 m/s 697 mmHg 42%
    08:00 +29°C° 0 mm 1 m/s 697 mmHg 34%
    09:00 +30°C° 0 mm 2 m/s 697 mmHg 31%
    10:00 +32°C° 0 mm 2 m/s 697 mmHg 28%
    11:00 +34°C° 0 mm 3 m/s 697 mmHg 26%
    12:00 +35°C° 0 mm 3 m/s 697 mmHg 24%
    13:00 +36°C° 0 mm 3 m/s 697 mmHg 22%
    14:00 +37°C° 0 mm 4 m/s 696 mmHg 20%
    15:00 +36°C° 0 mm 4 m/s 696 mmHg 22%
    16:00 +35°C° 0 mm 5 m/s 696 mmHg 25%
    17:00 +34°C° 0 mm 6 m/s 696 mmHg 27%
    18:00 +32°C° 0 mm 5 m/s 696 mmHg 37%
    19:00 +28°C° 0 mm 4 m/s 696 mmHg 47%
    20:00 +26°C° 0 mm 3 m/s 696 mmHg 57%
    21:00 +25°C° 0 mm 3 m/s 696 mmHg 58%
    22:00 +24°C° 0 mm 2 m/s 696 mmHg 59%
    23:00 +23°C° 0 mm 2 m/s 696 mmHg 60%

    28 August, Miercuri

    Timp Temperatura Precipitaţii Vânt Presiune Umiditate
    00:00 +23°C° 0 mm 2 m/s 696 mmHg 60%
    01:00 +21°C° 0 mm 2 m/s 696 mmHg 59%
    02:00 +21°C° 0 mm 2 m/s 696 mmHg 59%
    03:00 +20°C° 0 mm 2 m/s 696 mmHg 61%
    04:00 +21°C° 0 mm 1 m/s 696 mmHg 63%
    05:00 +20°C° 0 mm 1 m/s 695 mmHg 65%
    06:00 +22°C° 0 mm 1 m/s 696 mmHg 57%
    07:00 +25°C° 0 mm 1 m/s 696 mmHg 49%
    08:00 +27°C° 0 mm 1 m/s 697 mmHg 41%
    09:00 +29°C° 0 mm 2 m/s 697 mmHg 37%
    10:00 +31°C° 0 mm 2 m/s 696 mmHg 33%
    11:00 +32°C° 0 mm 2 m/s 696 mmHg 29%
    12:00 +34°C° 0 mm 3 m/s 696 mmHg 26%
    13:00 +35°C° 0 mm 3 m/s 696 mmHg 24%
    14:00 +36°C° 0 mm 4 m/s 695 mmHg 22%
    15:00 +35°C° 0 mm 4 m/s 695 mmHg 26%
    16:00 +34°C° 0 mm 5 m/s 695 mmHg 30%
    17:00 +33°C° 0 mm 6 m/s 695 mmHg 34%
    18:00 +30°C° 0 mm 5 m/s 695 mmHg 44%
    19:00 +28°C° 0 mm 4 m/s 695 mmHg 54%
    20:00 +25°C° 0 mm 3 m/s 695 mmHg 65%
    21:00 +25°C° 0 mm 3 m/s 695 mmHg 66%
    22:00 +24°C° 0 mm 3 m/s 696 mmHg 68%
    23:00 +24°C° 0 mm 2 m/s 696 mmHg 69%

    29 August, Joi

    Timp Temperatura Precipitaţii Vânt Presiune Umiditate
    00:00 +23°C° 0 mm 2 m/s 695 mmHg 69%
    01:00 +23°C° 0 mm 2 m/s 695 mmHg 68%
    02:00 +21°C° 0 mm 2 m/s 695 mmHg 67%
    03:00 +21°C° 0 mm 2 m/s 695 mmHg 68%
    04:00 +22°C° 0 mm 1 m/s 695 mmHg 69%
    05:00 +21°C° 0 mm 1 m/s 695 mmHg 70%
    06:00 +23°C° 0 mm 1 m/s 696 mmHg 62%
    07:00 +25°C° 0 mm 1 m/s 696 mmHg 54%
    08:00 +27°C° 0 mm 1 m/s 696 mmHg 46%
    09:00 +29°C° 0 mm 2 m/s 696 mmHg 41%
    10:00 +31°C° 0 mm 2 m/s 696 mmHg 36%
    11:00 +34°C° 0 mm 2 m/s 696 mmHg 31%
    12:00 +35°C° 0 mm 2 m/s 696 mmHg 29%
    13:00 +36°C° 0 mm 3 m/s 696 mmHg 27%
    14:00 +36°C° 0 mm 3 m/s 695 mmHg 25%
    15:00 +36°C° 0 mm 4 m/s 695 mmHg 27%
    16:00 +35°C° 0 mm 5 m/s 695 mmHg 30%
    17:00 +34°C° 0 mm 7 m/s 695 mmHg 33%
    18:00 +30°C° 0 mm 5 m/s 695 mmHg 42%
    19:00 +28°C° 0 mm 4 m/s 695 mmHg 50%
    20:00 +26°C° 0 mm 3 m/s 695 mmHg 59%
    21:00 +25°C° 0 mm 3 m/s 695 mmHg 62%
    22:00 +24°C° 0 mm 3 m/s 695 mmHg 64%
    23:00 +23°C° 0 mm 2 m/s 695 mmHg 67%
    Arată mai mult